Regional Weather Roundup
Issued by NWS Jackson, KY

Home | Current Version | Previous Version | Text Only | Print | Product List | Glossary On
Versions: 1 2 3 4 5 6 7 8 9 10 11 12 13 14 15 16 17 18 19 20 21 22 23 24 25 26 27 28 29 30 31 32 33 34 35 36 37 38 39 40 41 42 43 44 45 46 47 48 49 50
000
ASUS43 KJKL 081810
RWRJKL

EAST KENTUCKY HOURLY WEATHER ROUNDUP
NATIONAL WEATHER SERVICE JACKSON KY
100 PM EST THU DEC 08 2016

NOTE: "FAIR" INDICATES FEW OR NO CLOUDS BELOW 12,000 FEET WITH
NO SIGNIFICANT WEATHER AND/OR OBSTRUCTIONS TO VISIBILITY.

* THESE REPORTS ARE NOT UNDER NWS QUALITY CONTROL AND MAY NOT
  REPORT WEATHER SUCH AS PRECIPITATION AND FOG.

KYZ079-080-083-085-087-088-110-112-115-119-120-081900
...EASTERN KENTUCKY...

CITY           SKY/WX    TMP DP  RH WIND       PRES   REMARKS
JACKSON        MOSUNNY   36  20  52 VRB6      30.24F WCI  31
6HR MIN TEMP:  30; 6HR MAX TEMP:  36;

LONDON         MOSUNNY   36  18  48 W9        30.27F WCI  29
6HR MIN TEMP:  30; 6HR MAX TEMP:  38;

SOMERSET*      MOSUNNY   34  19  55 W10G17    30.33F WCI  26
MONTICELLO*    MOSUNNY   36  20  52 NW13G20   30.34F WCI  27
6HR MIN TEMP:  28; 6HR MAX TEMP:  37;

MIDDLESBORO*   MOSUNNY   38  22  50 CALM      30.28F
6HR MIN TEMP:  33; 6HR MAX TEMP:  38;

HARLAN APT*    MOCLDY    36  19  51 W13G18    30.24F WCI  27
PIKE CO APT*     N/A     36  19  49 W15       30.21F WCI  27
BIG SANDY APT* PTCLDY    37  19  48 W13       30.22F WCI  28
6HR MIN TEMP:  33; 6HR MAX TEMP:  37;

MOREHEAD APT*  PTCLDY    32  14  47 W9G16     30.29F WCI  24
ASHLAND*       MOSUNNY   37  21  52 W13G18    30.24S WCI  29
$$

KYZ035-036-041-042-044-050-067-078-099-081900
...CENTRAL KENTUCKY...

CITY           SKY/WX    TMP DP  RH WIND       PRES   REMARKS
MT STERLING*   MOSUNNY   34  21  60 NW12G20   30.30F WCI  25
FLEMING/MASON* SUNNY     32  15  49 NW14      30.28F WCI  22
DANVILLE*      SUNNY     32  16  51 NW15G22   30.33S WCI  22
LEXINGTON      SUNNY     34  16  47 W14G21    30.30F WCI  25
6HR MIN TEMP:  28; 6HR MAX TEMP:  34;

FRANKFORT      SUNNY     33  16  49 NW9G20    30.31F WCI  25
6HR MIN TEMP:  28; 6HR MAX TEMP:  33;

LOUISVILLE     MOSUNNY   35  13  40 W14       30.36F WCI  26
6HR MIN TEMP:  28; 6HR MAX TEMP:  35;

LEBANON*         N/A     32  16  51 W12       30.35S WCI  23
GLASGOW*       MOSUNNY   35  19  53 NW10      30.38S WCI  27
BOWLING GREEN  SUNNY     36  17  46 VRB6G17   30.41F WCI  31
6HR MIN TEMP:  31; 6HR MAX TEMP:  36;

$$

KYZ091>093-OHZ055-061-077-WVZ005-015-034-035-042-081900
...SOUTHERN OHIO/WEST VIRGINIA...

CITY           SKY/WX    TMP DP  RH WIND       PRES   REMARKS
COVINGTON      MOSUNNY   32  15  49 W17       30.27F WCI  21
COLUMBUS       CLOUDY    27  17  66 W24       30.22S WCI  12
DAYTON         FLURRIES  23  14  68 W18       30.26R WCI   9
WILMINGTON     SUNNY     29  16  58 W20G26    30.23S WCI  16
HUNTINGTON     SUNNY     36  17  46 W14G20    30.23F WCI  27
CHARLESTON     MOSUNNY   38  18  44 NW13G25   30.18F WCI  30
PINEVILLE*     SUNNY     38  15  39 MISG      30.19F
BECKLEY        SUNNY     34  15  46 W15G25    30.09F WCI  24
BLUEFIELD      MOSUNNY   33  16  49 NW14G24   30.08F WCI  23
LOGAN CO APT*    N/A     36  19  51 W9G18     30.16F WCI  29
$$

VAZ002-007-008-TNZ017-027-036-066-071-081900
...SOUTHWEST VIRGINIA/EAST TENNESSEE...

CITY           SKY/WX    TMP DP  RH WIND       PRES   REMARKS
WISE*          PTSUNNY   34  14  44 W12G22    30.16F WCI  25
ABINGDON*      MOSUNNY   43  20  40 NW14G22   30.15S
BRISTOL        MOSUNNY   43  20  39 W16G22    30.19F
MORRISTOWN*    CLEAR     41  19  42 NW9       30.24F
SEVIERVILLE*   CLEAR     43  21  42 W8        30.28R
KNOXVILLE      PTSUNNY   42  22  44 W8        30.28F
OAK RIDGE      CLOUDY    44  16  32 VRB6      30.30F
CROSSVILLE     CLOUDY    36  18  48 W14       30.29F WCI  27
NASHVILLE      PTSUNNY   40  17  39 W10G17    30.41F WCI  33
$$

...KEY TO REMARKS...
VSB - VISIBILITY IN MILES
WCI - WIND CHILL INDEX
HX  - HEAT INDEX

$$



USA.gov is the U.S. government's official web portal to all federal, state and local government web resources and services.